Terug naar catalogus

ZHANGHENG 1-02

ActiefWetenschapSSO
NORAD 64393·PAYLOAD·🇨🇳 China

Gelanceerd Jun 14, 2025 vanaf Jiuquan Satellite Launch Center

Loading…

Volgende Passages (komende 24 uur)

TLE

VersSource: Space-Track

Epoch: Sep 14, 2026, 15:43 UTC

1 64393U 25128A   26257.65549362  .00000039  00000-0  48477-5 0  9992
2 64393  97.3702  22.4358 0009015 137.7702 222.4229 15.20628902 69532

Volg ZHANGHENG 1-02 in realtime met AllMySat

Download on the App Store